Date String (YYYY-MM-DD hh:mm:ss) UTC,Instrument flags,Ambient pressure (hPa),Sample flow (lpm),Bypass flow (lpm),Sample temperature (°C),Ambient temperature (°C),ASC tube jacket temperature (°C),LED temperature (°C),Box temperature (°C),Sample RH (%),Span deviation,Mass concentration (μg/m³),Mass concentration (μg/m³),Mass concentration (μg/m³)
DateTimeUTC,F1_M11,P_M11,Q1_M11,Q2_M11,T1_M11,T2_M11,T3_M11,T4_M11,T5_M11,U1_M11,ZSPAN_M11,X2_M11,X0_M11,X1_M11
2022-10-09 15:00:00,,0833.7,5.00,0.00,27.5,26.2,00.0,36.1,29.4,19.3,0000.0,0006.80,0010.21,0006.30
2022-10-09 15:01:00,,0833.7,5.00,0.00,27.5,26.3,00.0,36.2,29.4,19.4,0000.0,0006.83,0010.30,0006.32
2022-10-09 15:02:00,,0833.7,4.99,0.00,27.5,26.3,00.0,36.2,29.4,19.4,0000.1,0006.89,0010.76,0006.35
2022-10-09 15:03:00,,0833.7,5.01,0.00,27.5,26.3,00.0,36.2,29.4,19.6,0000.1,0006.87,0010.88,0006.34
2022-10-09 15:04:00,,0833.7,5.01,0.00,27.5,26.3,00.0,36.2,29.4,19.4,-000.3,0006.80,0010.91,0006.32
2022-10-09 15:05:00,,0833.7,5.00,0.00,27.5,26.3,00.0,36.2,29.4,19.2,-000.4,0006.78,0011.17,0006.32
2022-10-09 15:06:00,,0833.7,5.00,0.00,27.5,26.3,00.0,36.2,29.5,19.5,-000.1,0006.76,0011.44,0006.28
2022-10-09 15:07:00,,0833.7,5.00,0.00,27.6,26.3,00.0,36.2,29.5,19.5,0000.3,0006.73,0011.40,0006.26
2022-10-09 15:08:00,,0833.7,5.01,0.00,27.6,26.4,00.0,36.2,29.5,19.4,-000.1,0006.73,0011.57,0006.23
2022-10-09 15:09:00,,0833.7,5.00,0.00,27.6,26.4,00.0,36.3,29.5,19.4,-000.5,0006.68,0011.74,0006.19
2022-10-09 15:10:00,,0833.7,4.99,0.00,27.6,26.4,00.0,36.3,29.5,19.5,-000.2,0006.64,0011.68,0006.16
2022-10-09 15:11:00,,0833.6,5.00,0.00,27.6,26.4,00.0,36.3,29.5,19.3,-000.1,0006.62,0011.81,0006.13
2022-10-09 15:12:00,,0833.6,5.01,0.00,27.6,26.4,00.0,36.3,29.5,19.4,0000.2,0006.58,0011.76,0006.09
2022-10-09 15:13:00,,0833.7,5.00,0.00,27.6,26.4,00.0,36.3,29.6,19.5,-000.2,0006.53,0011.51,0006.06
2022-10-09 15:14:00,,0833.6,4.99,0.00,27.7,26.4,00.0,36.3,29.6,19.5,-000.5,0006.47,0011.04,0006.02
2022-10-09 15:15:00,,0833.7,5.01,0.00,27.7,26.5,00.0,36.3,29.6,19.4,-000.0,0006.50,0010.78,0006.02
2022-10-09 15:16:00,,0833.6,4.99,0.00,27.7,26.5,00.0,36.3,29.6,19.3,-000.0,0006.48,0010.41,0005.99
2022-10-09 15:17:00,,0833.6,5.00,0.00,27.7,26.5,00.0,36.4,29.6,19.4,-000.2,0006.45,0009.88,0005.97
2022-10-09 15:18:00,,0833.6,5.00,0.00,27.7,26.5,00.0,36.4,29.6,19.7,-000.1,0006.44,0009.90,0005.96
2022-10-09 15:19:00,,0833.6,5.01,0.00,27.7,26.5,00.0,36.4,29.7,19.7,0000.0,0006.40,0009.80,0005.93
2022-10-09 15:20:00,,0833.6,4.99,0.00,27.7,26.5,00.0,36.4,29.7,19.7,0000.2,0006.38,0009.62,0005.90
2022-10-09 15:21:00,,0833.6,4.99,0.00,27.7,26.5,00.0,36.4,29.7,20.0,0000.0,0006.38,0009.82,0005.89
2022-10-09 15:22:00,,0833.7,4.99,0.00,27.8,26.6,00.0,36.4,29.7,20.0,0000.0,0006.34,0009.68,0005.87
2022-10-09 15:23:00,,0833.6,5.02,0.00,27.8,26.6,00.0,36.4,29.7,20.3,0000.0,0006.34,0009.71,0005.86
2022-10-09 15:24:00,,0833.6,4.99,0.00,27.8,26.6,00.0,36.5,29.7,20.0,0000.0,0006.33,0009.72,0005.86
2022-10-09 15:25:00,,0833.6,4.99,0.00,27.8,26.6,00.0,36.5,29.8,20.0,0000.0,0006.33,0009.82,0005.85
2022-10-09 15:26:00,,0833.7,5.01,0.00,27.8,26.6,00.0,36.5,29.7,19.6,0000.4,0006.32,0010.04,0005.83
2022-10-09 15:27:00,,0833.6,5.00,0.00,27.8,26.7,00.0,36.5,29.8,19.9,0000.4,0006.33,0010.11,0005.82
2022-10-09 15:28:00,,0833.7,5.00,0.00,27.8,26.7,00.0,36.5,29.8,20.1,0000.9,0006.36,0010.68,0005.82
2022-10-09 15:29:00,,0833.6,5.00,0.00,27.9,26.7,00.0,36.5,29.8,19.6,0000.4,0006.37,0010.75,0005.81
2022-10-09 15:30:00,,0833.7,5.01,0.00,27.9,26.7,00.0,36.5,29.8,19.8,-000.0,0006.38,0010.93,0005.78
2022-10-09 15:31:00,,0833.7,5.00,0.00,27.9,26.7,00.0,36.5,29.8,20.1,-000.0,0006.38,0010.95,0005.78
2022-10-09 15:32:00,,0833.6,4.99,0.00,27.9,26.7,00.0,36.6,29.8,20.0,-000.2,0006.36,0010.63,0005.77
2022-10-09 15:33:00,,0833.7,5.00,0.00,27.9,26.8,00.0,36.6,29.8,19.8,-000.1,0006.34,0010.90,0005.75
2022-10-09 15:34:00,,0833.6,5.00,0.00,27.9,26.8,00.0,36.6,29.9,19.7,-000.1,0006.35,0011.16,0005.73
2022-10-09 15:35:00,,0833.6,5.02,0.00,27.9,26.8,00.0,36.6,29.9,19.8,0000.1,0006.35,0011.24,0005.72
2022-10-09 15:36:00,,0833.7,4.99,0.00,27.9,26.8,00.0,36.6,29.9,20.0,-000.6,0006.37,0011.91,0005.71
2022-10-09 15:37:00,,0833.6,5.00,0.00,28.0,26.8,00.0,36.6,29.9,19.9,-000.6,0006.42,0011.82,0005.73
2022-10-09 15:38:00,,0833.6,4.99,0.00,28.0,26.8,00.0,36.7,29.9,19.3,-000.3,0006.42,0012.16,0005.73
2022-10-09 15:39:00,,0833.6,5.01,0.00,28.0,26.8,00.0,36.7,29.9,19.4,-000.4,0006.37,0012.32,0005.72
2022-10-09 15:40:00,,0833.6,5.01,0.00,28.0,26.8,00.0,36.7,29.9,19.6,-000.2,0006.37,0012.39,0005.72
2022-10-09 15:41:00,,0833.6,4.99,0.00,28.0,26.9,00.0,36.7,30.0,19.2,-000.1,0006.37,0012.27,0005.74
2022-10-09 15:42:00,,0833.7,4.99,0.00,28.0,26.9,00.0,36.7,30.0,19.5,0000.1,0006.36,0012.46,0005.74
2022-10-09 15:43:00,,0833.6,5.00,0.00,28.1,26.9,00.0,36.7,30.0,19.6,-000.0,0006.38,0012.48,0005.74
2022-10-09 15:44:00,,0833.6,5.01,0.00,28.1,26.9,00.0,36.7,30.0,19.5,-000.4,0006.39,0012.17,0005.74
2022-10-09 15:45:00,,0833.6,5.00,0.00,28.1,26.9,00.0,36.7,30.0,19.5,-000.4,0006.37,0011.90,0005.74
2022-10-09 15:46:00,,0833.6,5.00,0.00,28.1,26.9,00.0,36.8,30.0,19.2,-000.7,0006.35,0012.83,0005.74
2022-10-09 15:47:00,,0833.6,5.00,0.00,28.1,26.9,00.0,36.8,30.1,19.0,-000.6,0006.31,0012.20,0005.74
2022-10-09 15:48:00,,0833.6,5.00,0.00,28.1,26.9,00.0,36.8,30.1,18.9,-000.5,0006.29,0012.05,0005.73
2022-10-09 15:49:00,,0833.7,4.99,0.00,28.1,27.0,00.0,36.8,30.1,18.8,-000.9,0006.25,0011.98,0005.72
2022-10-09 15:50:00,,0833.6,5.00,0.00,28.2,27.0,00.0,36.8,30.1,18.6,-000.8,0006.26,0011.88,0005.73
2022-10-09 15:51:00,,0833.7,5.00,0.00,28.2,27.0,00.0,36.8,30.1,19.1,-000.4,0006.29,0011.38,0005.75
2022-10-09 15:52:00,,0833.7,5.01,0.00,28.2,27.0,00.0,36.8,30.1,19.1,-000.2,0006.27,0011.44,0005.75
2022-10-09 15:53:00,,0833.7,4.99,0.00,28.2,27.1,00.0,36.9,30.1,18.8,-000.4,0006.26,0011.35,0005.77
2022-10-09 15:54:00,,0833.6,5.00,0.00,28.2,27.1,00.0,36.9,30.1,18.9,-000.3,0006.24,0010.99,0005.78
2022-10-09 15:55:00,,0833.6,4.99,0.00,28.2,27.1,00.0,36.9,30.2,18.9,-000.2,0006.22,0010.91,0005.80
2022-10-09 15:56:00,,0833.6,5.00,0.00,28.3,27.1,00.0,36.9,30.2,19.0,-000.1,0006.25,0011.89,0005.83
2022-10-09 15:57:00,,0833.7,5.02,0.00,28.3,27.1,00.0,36.9,30.2,19.0,-000.4,0006.27,0011.43,0005.87
2022-10-09 15:58:00,,0833.6,4.99,0.00,28.3,27.1,00.0,36.9,30.2,18.8,-000.5,0006.30,0010.84,0005.90
2022-10-09 15:59:00,,0833.7,5.00,0.00,28.3,27.1,00.0,36.9,30.2,18.8,-000.6,0006.33,0010.88,0005.94
